Temp
5 5 6 6 6 6 6 6 6 7 7 7 7 6 7 7 6 6 7 7 7 7 6 6 6 6 7 7 7 7 6 6 6 6 6 7 6 6 5 5 5 5 4
5 5 5 6 6 7 7 6 6 6 6 6 6 6 7 6 6 5 6 6 6 6 6 6 6 6 6 6 6 6 6 6 6 6 6 6 7 6 6 5 5 4 4
4 5 5 5 5 6 6 6 6 6 6 6 6 7 6 6 5 5 5 5 5 5 5 5 6 6 6 6 6 6 6 6 6 5 5 5 6 6 6 5 5 5 4
3 4 4 4 4 5 5 6 6 6 6 6 6 6 6 5 5 4 3 3 3 5 5 5 5 5 5 6 6 6 5 5 6 6 5 5 5 5 5 5 4 3 3
4 4 4 4 4 4 4 5 5 5 5 5 5 5 5 5 5 4 4 3 3 3 4 5 5 5 5 5 5 5 5 6 6 6 5 5 5 4 4 4 4 3 3
4 4 4 4 3 4 4 4 4 5 5 5 5 5 5 4 4 4 4 4 4 4 4 4 4 5 5 5 5 5 5 5 5 5 5 5 4 4 4 3 3 2 3
4 4 4 4 4 3 3 3 4 4 4 4 4 4 4 4 4 3 3 3 4 4 4 3 4 4 4 4 5 5 5 5 5 5 5 4 4 4 3 3 3 2 1
4 4 4 4 4 3 3 3 3 3 4 3 3 4 3 2 3 2 2 3 3 3 3 4 3 3 4 4 4 5 5 5 5 5 4 4 4 3 3 3 3 2 2
4 4 4 3 3 2 2 2 2 3 3 3 3 3 2 1 1 1 2 2 3 3 2 2 3 3 3 3 4 4 4 4 4 4 4 4 4 3 3 3 2 2 2
4 4 3 2 2 2 2 2 2 2 2 2 2 2 2 1 1 0 -0 1 2 2 2 2 2 2 3 3 3 4 4 4 4 4 4 4 3 3 3 2 2 2 2
3 3 3 2 1 1 1 1 2 2 1 1 1 1 -0 -0 -0 -1 -1 -0 0 -0 -0 1 1 2 3 3 3 3 3 3 3 3 3 3 3 3 2 2 2 2 1
2 2 2 2 2 1 2 2 1 1 1 0 0 0 0 -0 -0 -0 0 -1 -2 -1 -0 1 1 1 2 2 2 2 2 2 2 2 2 3 2 2 2 2 2 1 2
1 1 2 2 2 2 2 1 1 0 0 -0 -1 -1 -1 -1 -1 -0 -2 -2 -2 -1 -1 -1 -0 -1 0 2 2 2 2 2 2 2 2 2 2 2 1 1 1 1 1
1 1 1 2 2 1 2 2 1 1 1 0 -0 -0 -1 -0 -1 -1 -1 -1 -1 -0 -0 -0 -0 0 1 1 1 1 1 1 1 1 2 1 1 1 1 1 1 0 0
0 1 1 1 1 1 1 1 1 1 1 1 1 0 -0 -1 -1 -1 -1 -1 -1 -1 -1 -1 -0 0 1 1 1 1 1 1 1 1 1 1 1 0 0 -0 -0 -1 -1
-0 -0 -0 0 0 1 1 1 1 1 1 1 1 0 0 -0 -1 -1 -1 -1 -1 -1 -1 -1 -0 0 0 0 0 0 1 1 0 1 0 0 -0 -0 -1 -1 -1 -1 -1
-1 -1 -0 0 0 0 0 0 0 0 1 1 0 -0 -1 -1 -1 -1 -1 -1 -1 -1 -1 -1 -0 -0 -0 -0 0 0 -0 -0 -0 -0 -1 -1 -1 -1 -1 -2 -2 -1 -1
-1 -0 -0 0 0 0 -0 -1 -1 -1 -0 -0 -0 -1 -1 -2 -2 -2 -2 -2 -2 -2 -1 -1 -1 -1 -1 -0 -0 -0 -1 -1 -1 -1 -2 -2 -2 -2 -2 -2 -2 -2 -2
-1 -1 -1 -0 0 -0 -1 -2 -2 -1 -1 -1 -1 -2 -2 -2 -2 -2 -2 -2 -2 -1 -1 -1 -1 -1 -1 -0 -1 -1 -1 -2 -2 -2 -3 -3 -3 -3 -2 -2 -2 -2 -2
-1 -1 -1 -0 -0 -0 -1 -2 -2 -2 -2 -2 -2 -2 -2 -2 -2 -2 -2 -2 -2 -2 -2 -2 -1 -1 -1 -1 -1 -1 -2 -2 -3 -3 -4 -4 -3 -3 -3 -3 -3 -3 -3
-2 -2 -1 -1 -1 -1 -1 -1 -2 -2 -2 -3 -3 -3 -3 -3 -3 -3 -2 -2 -2 -2 -2 -2 -2 -2 -1 -1 -2 -2 -3 -3 -4 -4 -4 -4 -4 -3 -3 -3 -3 -3 -3
-3 -2 -2 -1 -1 -1 -1 -2 -2 -3 -4 -3 -3 -3 -3 -3 -3 -3 -3 -3 -3 -3 -3 -3 -2 -2 -2 -2 -2 -3 -4 -4 -4 -4 -4 -4 -4 -4 -4 -4 -4 -4 -4
-4 -3 -3 -3 -2 -3 -3 -3 -3 -3 -3 -3 -3 -3 -4 -4 -3 -3 -3 -3 -3 -3 -3 -3 -2 -2 -2 -2 -3 -4 -4 -5 -5 -5 -5 -5 -5 -4 -4 -4 -4 -4 -4
-4 -4 -4 -4 -3 -3 -3 -3 -4 -3 -3 -3 -3 -4 -4 -4 -4 -4 -4 -4 -4 -4 -4 -4 -3 -3 -3 -3 -3 -4 -5 -5 -5 -6 -5 -5 -5 -4 -5 -5 -5 -5 -5
-5 -5 -5 -5 -5 -4 -4 -4 -3 -3 -3 -4 -4 -4 -4 -4 -4 -4 -5 -5 -5 -5 -4 -4 -3 -3 -4 -4 -4 -4 -4 -5 -5 -5 -5 -5 -5 -5 -5 -5 -5 -5 -5
-5 -5 -5 -5 -5 -5 -5 -4 -4 -4 -4 -4 -4 -5 -5 -5 -5 -5 -5 -5 -5 -5 -4 -4 -4 -4 -4 -4 -5 -5 -5 -5 -5 -5 -5 -5 -5 -6 -5 -6 -6 -6 -6
Height
3120 3122 3126 3131 3135 3137 3139 3143 3146 3149 3151 3153 3158 3162 3162 3164 3165 3166 3168 3170 3172 3172 3174 3176 3177 3177 3176 3176 3175 3174 3173 3172 3170 3167 3166 3164 3162 3161 3159 3156 3154 3150 3148
3118 3120 3123 3126 3130 3134 3136 3138 3142 3145 3147 3150 3154 3156 3157 3158 3160 3162 3163 3165 3166 3169 3170 3171 3172 3173 3172 3171 3170 3169 3168 3167 3165 3162 3159 3156 3158 3155 3152 3151 3149 3146 3143
3114 3117 3119 3122 3125 3128 3132 3136 3138 3141 3143 3146 3149 3151 3152 3153 3155 3156 3158 3161 3163 3164 3165 3166 3166 3167 3168 3167 3166 3164 3162 3161 3161 3158 3154 3150 3149 3147 3145 3144 3142 3139 3137
3109 3112 3115 3119 3121 3124 3127 3131 3135 3138 3139 3142 3144 3145 3146 3149 3152 3154 3155 3156 3158 3160 3163 3163 3161 3162 3162 3161 3160 3159 3157 3155 3154 3153 3149 3145 3143 3140 3139 3140 3137 3133 3131
3104 3106 3109 3114 3117 3120 3123 3126 3128 3130 3133 3134 3138 3138 3140 3143 3145 3149 3150 3150 3152 3154 3156 3156 3156 3156 3156 3155 3154 3153 3151 3149 3148 3146 3144 3141 3138 3137 3132 3130 3133 3128 3125
3099 3101 3104 3108 3110 3113 3117 3120 3122 3125 3127 3129 3132 3133 3135 3137 3140 3142 3144 3145 3147 3149 3149 3150 3150 3150 3149 3148 3148 3146 3144 3142 3140 3138 3137 3135 3132 3130 3128 3124 3124 3121 3119
3094 3098 3099 3102 3105 3108 3111 3114 3117 3120 3122 3123 3126 3127 3129 3131 3133 3135 3137 3138 3141 3143 3143 3145 3145 3143 3142 3141 3140 3139 3137 3135 3133 3131 3129 3127 3125 3123 3121 3118 3117 3114 3112
3092 3093 3095 3096 3099 3102 3106 3108 3110 3114 3116 3118 3119 3120 3122 3120 3125 3129 3132 3133 3135 3137 3137 3138 3137 3137 3136 3134 3133 3132 3130 3128 3126 3123 3121 3119 3117 3115 3114 3112 3110 3107 3105
3087 3088 3089 3091 3094 3096 3099 3103 3104 3107 3110 3112 3113 3114 3115 3117 3120 3123 3126 3127 3128 3128 3129 3129 3129 3129 3128 3126 3124 3123 3121 3119 3117 3115 3113 3111 3109 3107 3105 3103 3102 3100 3099
3083 3084 3085 3086 3090 3092 3094 3096 3097 3099 3101 3104 3105 3106 3108 3107 3112 3115 3118 3120 3121 3120 3121 3120 3120 3120 3119 3117 3116 3114 3112 3110 3108 3106 3104 3102 3100 3098 3096 3095 3093 3092 3091
3081 3082 3081 3082 3085 3087 3088 3090 3090 3092 3094 3097 3099 3100 3102 3102 3103 3105 3108 3111 3110 3111 3112 3113 3112 3111 3110 3109 3108 3106 3103 3101 3098 3096 3094 3092 3090 3089 3087 3086 3085 3084 3083
3080 3079 3078 3080 3081 3082 3082 3083 3085 3086 3089 3089 3092 3093 3094 3095 3097 3099 3098 3099 3101 3102 3103 3104 3103 3103 3101 3100 3098 3096 3094 3092 3090 3088 3085 3083 3081 3081 3080 3079 3078 3078 3077
3077 3077 3077 3077 3078 3077 3077 3078 3079 3080 3082 3082 3084 3086 3088 3090 3091 3092 3092 3093 3096 3095 3095 3095 3095 3094 3094 3092 3089 3087 3086 3083 3081 3079 3077 3075 3073 3072 3072 3071 3071 3070 3070
3072 3073 3074 3074 3074 3074 3074 3074 3074 3075 3075 3077 3077 3080 3082 3085 3086 3087 3089 3089 3089 3089 3087 3087 3086 3086 3084 3082 3081 3079 3077 3075 3072 3071 3069 3067 3066 3065 3064 3063 3063 3064 3065
3067 3068 3068 3069 3069 3069 3070 3070 3070 3070 3070 3071 3072 3074 3076 3077 3079 3080 3081 3081 3080 3080 3080 3080 3080 3078 3076 3074 3072 3071 3069 3066 3064 3063 3061 3060 3059 3058 3057 3057 3057 3059 3060
3061 3061 3061 3061 3061 3061 3062 3062 3064 3064 3063 3064 3065 3066 3068 3070 3072 3073 3074 3075 3074 3074 3074 3073 3072 3069 3068 3066 3063 3061 3060 3058 3056 3055 3055 3053 3053 3052 3052 3053 3053 3055 3057
3052 3052 3052 3052 3052 3052 3052 3052 3054 3055 3057 3058 3059 3061 3063 3065 3065 3068 3068 3068 3068 3066 3066 3065 3064 3061 3059 3057 3056 3054 3052 3050 3049 3048 3047 3047 3047 3047 3048 3049 3051 3052 3053
3044 3044 3044 3044 3044 3044 3044 3045 3046 3048 3050 3052 3054 3056 3057 3059 3061 3061 3061 3060 3060 3059 3058 3057 3055 3053 3051 3050 3048 3046 3045 3044 3042 3042 3041 3041 3042 3044 3045 3046 3048 3049 3050
3037 3037 3036 3036 3036 3036 3037 3038 3039 3042 3044 3046 3048 3050 3051 3053 3054 3054 3054 3054 3053 3052 3050 3048 3047 3046 3045 3043 3041 3039 3038 3037 3036 3036 3036 3037 3038 3040 3042 3044 3047 3047 3048
3030 3029 3028 3028 3027 3029 3029 3031 3034 3036 3038 3041 3042 3044 3045 3046 3048 3048 3048 3048 3047 3045 3044 3043 3041 3039 3037 3036 3034 3032 3031 3031 3030 3031 3032 3034 3036 3037 3039 3042 3043 3044 3044
3023 3021 3019 3019 3019 3019 3021 3023 3027 3029 3032 3033 3035 3037 3039 3040 3041 3041 3041 3041 3040 3039 3037 3035 3034 3032 3031 3029 3027 3026 3025 3026 3026 3027 3028 3031 3033 3035 3036 3038 3039 3040 3041
3016 3014 3012 3011 3011 3011 3012 3015 3019 3023 3023 3024 3027 3029 3032 3034 3034 3035 3034 3033 3033 3032 3030 3028 3027 3025 3024 3022 3021 3020 3020 3021 3023 3024 3026 3028 3030 3031 3033 3035 3035 3035 3036
3010 3008 3006 3005 3004 3005 3007 3009 3012 3015 3017 3018 3020 3022 3024 3026 3027 3027 3027 3026 3024 3023 3022 3022 3021 3019 3018 3017 3016 3016 3016 3017 3019 3021 3023 3025 3027 3028 3029 3030 3030 3030 3031
3003 3002 3001 3000 2999 3000 3002 3003 3005 3008 3009 3011 3013 3015 3018 3019 3019 3019 3019 3017 3016 3015 3015 3015 3014 3013 3013 3013 3012 3012 3013 3014 3015 3017 3019 3021 3022 3022 3023 3024 3024 3024 3025
2996 2996 2996 2995 2995 2996 2997 2998 3000 3002 3003 3005 3007 3009 3010 3011 3011 3011 3011 3010 3009 3009 3008 3008 3008 3007 3008 3008 3008 3008 3009 3010 3011 3013 3014 3015 3016 3017 3017 3018 3018 3018 3019
2989 2990 2990 2990 2991 2991 2993 2993 2995 2997 2998 2999 3001 3002 3002 3003 3003 3002 3002 3003 3002 3002 3002 3002 3002 3002 3001 3002 3003 3004 3004 3005 3005 3007 3009 3009 3010 3011 3011 3011 3011 3012 3012
Wind_Speed
20 21 24 25 27 27 27 29 26 27 28 28 29 28 26 26 24 23 24 23 23 22 18 16 17 19 20 20 21 22 24 25 26 28 28 28 29 27 27 27 27 28 28
24 23 21 24 26 26 26 27 26 27 26 26 24 23 23 25 24 25 24 24 24 20 17 18 18 19 21 23 24 26 27 27 28 30 33 34 31 30 28 25 24 24 26
28 25 24 25 28 29 28 28 27 28 26 25 24 24 25 25 23 22 21 19 19 21 22 19 19 23 24 25 27 28 29 30 29 31 34 36 35 32 30 27 27 26 27
33 32 31 28 22 26 29 30 29 28 28 29 28 24 23 21 21 22 21 22 21 24 31 23 27 25 26 27 28 30 31 32 31 31 33 33 34 32 33 28 27 30 30
26 29 36 34 35 32 27 29 31 30 30 28 27 26 25 26 29 33 34 31 27 28 27 24 25 26 27 28 29 31 32 34 34 34 32 32 33 31 32 33 27 31 32
29 33 28 31 33 33 33 31 28 31 31 31 31 32 31 31 28 29 29 27 24 24 24 24 26 27 27 28 30 32 33 34 35 34 33 32 33 31 32 33 31 31 33
25 30 31 35 32 39 38 33 34 28 31 33 33 33 33 35 30 29 28 27 25 24 24 30 27 27 27 28 30 33 34 34 34 34 33 33 33 32 31 32 32 33 32
18 22 27 27 32 32 38 35 33 34 33 28 32 34 32 31 31 30 27 27 26 28 27 31 28 27 27 27 31 35 36 36 36 35 34 33 33 33 32 32 32 32 33
14 17 21 23 25 28 36 38 35 36 37 38 35 32 41 39 31 28 28 29 29 29 28 27 27 30 35 36 36 38 39 39 38 37 36 35 34 34 33 32 32 32 32
17 18 17 18 20 20 23 29 33 37 38 36 33 34 35 35 37 37 33 34 31 28 29 31 32 32 34 35 38 39 39 39 38 36 35 34 34 33 32 31 30 29 29
10 10 11 15 20 22 23 23 24 26 27 27 31 34 34 34 38 32 32 37 41 34 36 34 32 31 31 33 37 38 36 36 36 34 34 32 31 31 31 29 28 27 27
4 5 5 10 17 21 20 20 22 24 25 30 28 31 32 32 37 37 39 33 27 29 29 29 34 31 29 33 35 36 35 34 34 33 33 32 30 30 29 28 27 26 25
10 11 7 6 6 9 17 21 23 24 25 29 29 25 20 28 30 33 34 32 29 34 36 38 43 39 33 37 37 34 34 33 33 33 31 31 29 28 27 26 25 24 23
17 16 16 16 17 14 12 15 22 23 25 30 32 29 32 36 33 37 28 33 32 29 31 33 34 37 37 37 34 33 33 32 32 32 31 29 28 26 24 23 22 20 18
23 25 25 22 22 20 20 18 19 22 25 27 30 32 33 33 36 38 39 34 31 31 31 32 33 33 31 31 32 33 32 32 31 30 29 27 25 24 22 20 18 17 16
32 31 31 32 33 33 30 27 25 23 23 24 25 27 27 23 23 24 26 28 28 29 30 30 31 30 30 31 30 30 31 30 28 27 26 24 22 21 20 17 16 15 14
29 33 35 35 33 31 28 25 24 25 24 22 23 22 21 21 20 23 24 25 26 26 27 28 28 28 28 28 29 29 28 28 27 24 22 22 20 18 17 16 15 15 14
29 30 30 30 30 29 28 26 23 25 24 23 21 20 19 19 20 21 22 23 24 25 26 26 26 26 27 28 27 28 27 25 23 21 20 18 18 17 16 15 15 14 13
27 28 28 28 30 28 25 23 23 23 24 23 21 19 19 20 20 20 21 21 23 24 24 25 25 26 26 27 27 27 25 22 20 18 17 16 15 15 15 14 14 13 12
27 26 26 29 30 26 25 23 24 23 20 20 21 21 22 21 20 20 21 22 23 23 24 24 25 26 27 28 25 23 21 21 18 15 14 14 14 13 14 14 14 12 12
23 24 25 26 27 27 27 23 23 25 25 26 26 25 23 22 22 22 23 24 24 25 23 22 22 23 23 23 22 21 19 18 16 14 14 13 14 15 15 14 13 14 14
21 21 21 22 22 24 25 23 21 20 21 25 27 26 23 22 23 24 25 25 26 27 24 23 23 22 22 20 19 17 16 15 14 13 14 15 15 14 14 16 17 16 16
20 20 18 17 16 16 19 21 23 20 21 23 25 23 22 23 25 26 27 29 30 28 23 22 20 19 19 17 16 16 15 14 14 18 17 17 17 20 19 18 17 17 17
18 18 17 15 14 15 18 18 19 23 25 26 25 22 23 24 26 26 30 30 27 24 23 23 21 18 16 15 14 14 15 16 16 15 18 18 17 18 19 19 19 19 19
19 17 16 16 14 14 17 19 22 25 26 24 22 23 25 27 29 29 28 26 23 22 20 21 20 17 16 17 16 13 14 17 19 19 20 21 23 22 22 21 21 21 21
23 19 16 13 15 17 16 19 20 20 23 24 26 28 28 28 28 26 26 26 27 24 21 20 19 17 18 18 18 18 19 19 21 20 20 21 21 21 22 22 23 22 23
Wind_Direction
224 216 215 219 226 224 220 226 226 233 240 236 238 233 244 249 250 249 246 238 234 233 240 253 266 277 282 287 291 295 297 300 302 302 303 302 305 303 302 301 301 300 301
239 238 228 229 228 228 231 234 240 240 240 240 247 248 248 250 250 247 246 238 231 229 241 255 267 275 281 287 292 295 297 297 299 302 302 304 303 305 302 301 298 297 297
236 233 233 230 229 230 229 232 234 237 239 245 249 256 248 237 238 236 233 232 241 242 248 260 277 279 282 287 290 292 293 295 298 299 299 301 303 303 304 306 304 300 299
235 238 233 236 238 239 236 236 237 236 238 238 243 241 246 236 242 240 234 235 242 260 265 266 280 279 283 286 288 290 291 293 294 293 294 295 298 300 298 300 299 295 294
230 238 239 238 240 244 246 245 242 242 242 242 245 247 238 242 245 257 260 253 261 261 256 257 268 278 283 286 288 290 291 291 291 290 289 290 290 292 293 294 294 289 289
236 237 238 237 237 236 239 243 247 248 248 247 245 246 247 246 245 247 247 246 246 249 258 267 269 275 281 286 289 291 291 290 289 290 289 288 288 290 289 289 290 285 286
224 232 242 243 247 247 246 245 244 249 251 251 250 247 248 248 243 242 243 243 249 260 264 272 274 275 279 284 289 291 291 291 291 290 290 290 289 288 286 284 284 284 283
234 237 241 246 246 252 245 249 249 247 249 257 257 253 255 244 248 247 248 250 256 260 266 271 269 279 284 289 292 292 290 289 290 291 292 291 289 287 285 282 282 280 281
254 246 241 246 246 245 245 248 254 258 262 265 264 258 254 253 248 242 248 252 255 258 257 262 268 279 289 292 289 285 285 286 287 289 289 287 285 283 282 282 280 279 277
259 256 249 244 243 244 243 250 253 256 260 263 262 264 255 245 242 241 250 253 257 257 261 267 278 284 287 289 287 287 287 286 285 284 283 284 284 283 281 279 277 276 277
254 252 250 246 240 243 248 256 251 252 257 260 257 251 255 261 241 234 241 251 253 253 269 271 272 278 282 287 288 285 284 284 283 283 282 281 282 280 278 276 274 270 270
296 296 274 255 250 247 247 253 254 256 257 251 248 255 268 262 260 266 266 256 259 256 260 267 266 269 278 278 282 284 284 284 284 284 282 282 280 279 277 275 272 271 270
284 267 267 284 282 264 254 251 251 252 251 249 240 239 237 248 275 284 254 247 264 266 264 273 269 273 277 281 287 286 286 286 285 284 282 281 278 276 274 273 271 269 266
273 270 263 261 268 275 280 269 255 251 246 249 251 250 250 259 256 260 270 277 274 270 276 279 280 279 281 283 287 288 288 287 285 284 282 280 276 274 270 267 265 261 256
283 284 281 279 276 276 274 270 270 261 254 250 249 253 255 256 256 263 268 271 273 278 279 279 278 279 281 283 285 285 286 285 284 283 281 278 274 271 268 262 255 248 240
274 277 281 283 286 286 279 271 259 261 259 250 246 245 248 251 253 256 262 265 269 272 274 276 279 281 282 283 286 288 287 285 282 280 279 276 271 266 260 252 241 228 224
277 278 281 282 280 279 279 274 249 244 250 249 244 239 239 244 251 256 261 266 269 273 276 278 279 280 283 286 288 287 287 283 279 276 275 271 264 255 247 236 226 221 227
277 275 274 274 275 273 269 269 244 236 240 239 239 239 239 243 249 257 265 271 275 278 280 283 286 287 288 287 288 287 285 281 277 273 268 262 255 244 235 228 227 229 232
278 274 269 268 269 269 263 255 237 233 236 236 237 238 242 248 255 263 268 272 276 281 285 287 287 285 286 287 286 283 279 276 271 266 260 249 239 231 229 230 233 234 239
280 276 271 263 263 265 255 244 235 231 233 239 240 239 242 248 255 264 272 276 278 280 283 284 285 285 286 281 283 277 271 267 260 252 243 233 229 225 230 235 237 238 244
285 281 275 266 262 258 252 240 237 238 240 240 236 237 242 248 256 266 273 278 280 279 281 285 288 289 290 282 275 270 265 258 248 232 230 231 226 228 232 238 246 247 249
289 288 282 272 262 252 248 235 234 234 235 237 231 232 239 250 260 267 274 278 280 279 280 284 288 287 288 285 274 263 254 247 237 225 225 231 231 236 245 246 247 250 254
285 287 285 277 262 240 232 231 226 221 239 233 228 232 242 251 258 268 275 277 279 281 275 280 282 285 288 285 274 260 247 234 224 227 224 225 237 244 247 250 254 258 262
279 284 282 276 264 242 234 230 216 230 235 228 229 236 246 253 264 273 278 284 286 279 269 272 279 279 279 278 268 254 240 228 225 233 239 242 248 255 257 258 260 263 266
265 269 270 273 261 248 238 237 237 236 236 236 241 245 252 260 266 270 279 278 275 275 269 272 272 269 265 267 266 254 239 238 237 239 241 244 250 255 258 260 263 265 267
253 259 261 259 260 248 241 244 246 243 244 246 252 257 260 260 268 273 269 267 273 268 272 267 266 263 263 268 264 250 245 245 248 248 250 252 257 260 262 263 264 266 266